[[{"header":{"parameterUnit":"m.s-1","parameterCategory":1,"la1":30.2991,"la2":30.254,"lo1":-89.0895,"lo2":-89.0444,"dy":0.0017,"dx":0.0017,"nx":28,"ny":28,"refTime":"2025-12-24T03:00:00:Z","depth":0,"parameterNumber":2,"parameterNumberName":"U-component_of_WINDS"},"data":[0,0,0,0,0,0,0,0,0,0,0,0,0,0,0,0,0,0,0,0,0,0,0,0,0,0,0,0,0,0,0,0,0,0,0,0,0,0,0,0,0,0,0,0,0,0,0,0,0,0,0,0,0,0,0,0,0,0,-2.4367,-2.4367,0,-2.4352,-2.4351,-2.4351,-2.4275,-2.4273,-2.4271,-2.427,-2.4255,-2.4256,-2.4257,0,0,0,0,0,0,0,0,0,0,0,0,0,-2.4333,-2.4334,-2.4367,-2.4367,-2.4367,-2.4352,-2.4351,-2.4351,-2.4275,-2.4273,-2.4271,-2.4269,-2.4254,-2.4256,-2.4257,0,0,0,0,0,0,0,0,0,0,0,0,0,-2.4336,-2.4335,-2.4367,-2.4327,-2.4323,-2.4352,-2.4351,-2.4351,-2.4276,-2.4273,-2.427,-2.4268,-2.4254,-2.4256,-2.4258,-2.4324,0,0,-2.4263,-2.4264,0,0,0,0,0,0,0,0,-2.4336,-2.4337,-2.4333,-2.433,-2.4326,-2.4312,-2.4334,-2.4342,-2.4276,-2.4294,-2.427,-2.4266,-2.4276,-2.4276,-2.4279,-2.4323,-2.4322,-2.4264,-2.4265,-2.4266,-2.4266,0,0,0,0,0,0,0,-2.4336,-2.4338,-2.4361,-2.4333,-2.4329,-2.4311,-2.4308,-2.4335,-2.43,-2.4292,-2.4286,-2.4286,-2.4274,-2.4277,-2.4278,-2.4322,-2.4264,-2.4265,-2.4267,-2.4267,-2.4421,-2.4424,0,0,0,0,0,0,-2.4341,-2.4338,-2.4361,-2.436,-2.4324,-2.4313,-2.431,-2.4319,-2.43,-2.4294,-2.4288,-2.4282,-2.4275,-2.4276,-2.4277,-2.4353,-2.4266,-2.4267,-2.4269,-2.4418,-2.4421,-2.4425,0,0,0,0,0,0,-2.4341,-2.4344,-2.4362,-2.4348,-2.4349,-2.4317,-2.4328,-2.4321,-2.4324,-2.4297,-2.429,-2.4298,-2.4273,-2.4275,-2.4313,-2.4352,-2.4268,-2.427,-2.4414,-2.4419,-2.4423,-2.4507,0,0,0,0,0,0,-2.434,-2.4344,-2.4368,-2.4349,-2.435,-2.4397,-2.433,-2.4322,-2.4328,-2.432,-2.4305,-2.4299,-2.4271,-2.431,-2.4315,-2.4353,-2.4272,-2.4411,-2.4417,-2.4422,-2.45,-2.4513,-2.4524,0,0,0,0,0,-2.4339,-2.4392,-2.437,-2.4373,-2.4379,-2.44,-2.44,-2.4366,-2.4331,-2.4355,-2.4338,-2.43,-2.4348,-2.4315,-2.4319,-2.4359,-2.4408,-2.4415,-2.4421,-2.4495,-2.4511,-2.4524,0,0,0,0,0,0,-2.4417,-2.4389,-2.4364,-2.4412,-2.4409,-2.4387,-2.4416,-2.4384,-2.4391,-2.4384,-2.4342,-2.4339,-2.4384,-2.4375,-2.434,-2.4422,-2.4371,-2.4379,-2.4426,-2.4441,-2.4453,-2.4453,-2.4273,0,0,0,0,0,-2.444,-2.4458,-2.4433,-2.4478,-2.4478,-2.4448,-2.4455,-2.443,-2.4425,-2.4423,-2.4409,-2.4406,-2.442,-2.443,-2.4442,-2.45,-2.4495,-2.4529,-2.4541,-2.4551,-2.4558,-2.4588,-2.4603,-2.4446,-2.4446,-2.4446,0,0,-2.4487,-2.4474,-2.4488,-2.4494,-2.4488,-2.4509,-2.4447,-2.4471,-2.4486,-2.4427,-2.4462,-2.4452,-2.4446,-2.4494,-2.4515,-2.4489,-2.4601,-2.456,-2.4568,-2.4569,-2.4597,-2.4612,-2.4625,-2.4451,-2.445,-2.4449,0,0,-2.4583,-2.4575,-2.4612,-2.4608,-2.4601,-2.4581,-2.459,-2.4573,-2.4564,-2.4599,-2.4555,-2.4573,-2.4599,-2.4596,-2.4599,-2.4698,-2.4663,-2.4703,-2.4766,-2.4796,-2.4808,-2.4819,-2.4854,-2.4867,-2.471,-2.471,-2.471,0,-2.4642,-2.467,-2.4635,-2.4662,-2.4667,-2.4615,-2.4652,-2.4651,-2.4648,-2.4653,-2.4623,-2.4655,-2.4648,-2.4695,-2.4719,-2.4723,-2.4733,-2.4703,-2.4809,-2.482,-2.4829,-2.4862,-2.4875,-2.4715,-2.4714,-2.4714,-2.4713,0,-2.4744,-2.4765,-2.4796,-2.4795,-2.4803,-2.4835,-2.4805,-2.4818,-2.4793,-2.4777,-2.4814,-2.4803,-2.4812,-2.4822,-2.4798,-2.4867,-2.4851,-2.4816,-2.4764,-2.4849,-2.4879,-2.4892,-2.4722,-2.472,-2.4719,-2.4718,0,0,-2.4885,-2.4866,-2.4877,-2.4877,-2.4866,-2.4882,-2.4914,-2.4923,-2.4934,-2.4935,-2.496,-2.4985,-2.4953,-2.4956,-2.4932,-2.4958,-2.5037,-2.492,-2.492,-2.4942,-2.5113,-2.5138,-2.5153,-2.5015,-2.5018,-2.5019,-2.5113,0,-2.4976,-2.5027,-2.4997,-2.5053,-2.5072,-2.5025,-2.5053,-2.505,-2.5036,-2.5052,-2.5037,-2.5054,-2.5012,-2.5013,-2.5038,-2.5022,-2.5071,-2.5016,-2.5038,-2.5039,-2.5039,-2.5168,-2.5194,-2.5283,-2.5125,-2.5127,-2.5128,0,-2.5088,-2.5094,-2.5152,-2.5139,-2.5146,-2.5171,-2.5178,-2.5193,-2.519,-2.5178,-2.5183,-2.5153,-2.5183,-2.5134,-2.5176,-2.5139,-2.5147,-2.5141,-2.5144,-2.5143,-2.5087,-2.517,-2.531,-2.5323,-2.5146,-2.5145,-2.5143,0,-2.5185,-2.5208,-2.5245,-2.5246,-2.5233,-2.5251,-2.5247,-2.5241,-2.5249,-2.5255,-2.526,-2.5271,-2.5276,-2.5285,-2.5259,-2.5225,-2.5305,-2.5252,-2.5296,-2.5296,-2.5312,-2.5312,-2.5455,-2.5321,-2.5321,-2.532,-2.532,0,-2.5288,-2.5325,-2.5288,-2.5311,-2.5352,-2.5319,-2.536,-2.5351,-2.5346,-2.5367,-2.5328,-2.5349,-2.5314,-2.5331,-2.5311,-2.5349,-2.5352,-2.5344,-2.5338,-2.5346,-2.5347,-2.535,-2.5342,-2.5324,-2.5323,-2.5322,-2.5322,0,-2.5401,-2.5378,-2.5416,-2.5401,-2.5398,-2.5429,-2.5416,-2.5437,-2.5422,-2.545,-2.5454,-2.543,-2.5449,-2.5425,-2.5441,-2.5428,-2.5479,-2.5465,-2.548,-2.5475,-2.552,-2.5516,-2.5668,-2.5687,-2.5542,-2.5544,-2.5545,0,-2.5468,-2.5496,-2.5484,-2.5495,-2.5493,-2.5512,-2.552,-2.5489,-2.55,-2.5499,-2.5521,-2.5537,-2.5547,-2.558,-2.5564,-2.5577,-2.5562,-2.5615,-2.5563,-2.5572,-2.5562,-2.556,-2.5562,-2.5625,-2.5626,-2.5628,-2.5629,0,-2.5589,-2.5577,-2.559,-2.56,-2.5611,-2.5617,-2.5621,-2.5633,-2.5601,-2.5615,-2.5633,-2.5642,-2.566,-2.5676,-2.5685,-2.5681,-2.565,-2.5646,-2.5656,-2.5664,-2.5672,-2.5668,-2.5507,-2.5642,-2.564,-2.5639,-2.5639,-2.5638,-2.568,-2.5703,-2.5698,-2.5715,-2.5715,-2.572,-2.5739,-2.5727,-2.5742,-2.5754,-2.5735,-2.5759,-2.5757,-2.5767,-2.5766,-2.5785,-2.5762,-2.5778,-2.5781,-2.5785,-2.5792,-2.5671,-2.5787,-2.5787,-2.5786,-2.5786,-2.5786,0,-2.5798,-2.5794,-2.5809,-2.5816,-2.5829,-2.58,-2.5803,-2.5817,-2.5838,-2.5839,-2.5851,-2.5874,-2.589,-2.5877,-2.589,-2.5908,-2.5894,-2.5913,-2.591,-2.591,-2.5812,-2.5801,-2.5924,-2.5924,-2.5924,-2.5923,-2.5923,-2.5923,-2.5861,-2.5898,-2.5886,-2.5923,-2.5918,-2.5941,-2.5946,-2.595,-2.5951,-2.5978,-2.5991,-2.5983,-2.5978,-2.5992,-2.6006,-2.6002,-2.6008,-2.6031,-2.6022,-2.593,-2.5917,-2.5904,-2.5893,-2.6033,-2.6033,-2.6118,-2.6119,-2.612]},{"header":{"parameterUnit":"m.s-1","parameterCategory":1,"la1":30.2991,"la2":30.254,"lo1":-89.0895,"lo2":-89.0444,"dy":0.0017,"dx":0.0017,"nx":28,"ny":28,"refTime":"2025-12-24T03:00:00:Z","depth":0,"parameterNumber":3,"parameterNumberName":"V-component_of_WINDS"},"data":[0,0,0,0,0,0,0,0,0,0,0,0,0,0,0,0,0,0,0,0,0,0,0,0,0,0,0,0,0,0,0,0,0,0,0,0,0,0,0,0,0,0,0,0,0,0,0,0,0,0,0,0,0,0,0,0,0,0,0.8237,0.8237,0,0.8255,0.8255,0.8255,0.8338,0.834,0.8342,0.8344,0.8359,0.8358,0.8356,0,0,0,0,0,0,0,0,0,0,0,0,0,0.8272,0.8271,0.8237,0.8237,0.8237,0.8255,0.8255,0.8255,0.8338,0.834,0.8342,0.8345,0.836,0.8358,0.8356,0,0,0,0,0,0,0,0,0,0,0,0,0,0.827,0.8271,0.8237,0.8281,0.8285,0.8255,0.8255,0.8255,0.8337,0.834,0.8343,0.8346,0.836,0.8358,0.8356,0.8285,0,0,0.835,0.8349,0,0,0,0,0,0,0,0,0.827,0.8269,0.8274,0.8277,0.8282,0.8297,0.8273,0.8265,0.8336,0.8317,0.8344,0.8347,0.8336,0.8336,0.8333,0.8285,0.8286,0.835,0.8348,0.8347,0.8347,0,0,0,0,0,0,0,0.827,0.8268,0.8244,0.8274,0.8279,0.8299,0.8302,0.8272,0.831,0.8319,0.8325,0.8326,0.8339,0.8335,0.8334,0.8286,0.835,0.8348,0.8346,0.8346,0.8183,0.818,0,0,0,0,0,0,0.8264,0.8268,0.8243,0.8244,0.8283,0.8296,0.8299,0.8289,0.831,0.8317,0.8324,0.833,0.8337,0.8336,0.8335,0.8254,0.8347,0.8345,0.8344,0.8186,0.8182,0.8179,0,0,0,0,0,0,0.8265,0.8261,0.8243,0.8258,0.8257,0.8292,0.828,0.8288,0.8284,0.8314,0.8321,0.8313,0.8339,0.8338,0.8297,0.8255,0.8344,0.8343,0.8189,0.8185,0.818,0.809,0,0,0,0,0,0,0.8265,0.8261,0.8234,0.8257,0.8256,0.8205,0.8278,0.8286,0.8281,0.8289,0.8306,0.8311,0.8341,0.83,0.8295,0.8254,0.8341,0.8193,0.8187,0.8182,0.8097,0.8083,0.8071,0,0,0,0,0,0.8266,0.8207,0.8233,0.8229,0.8223,0.8202,0.8202,0.8239,0.8277,0.8251,0.827,0.8311,0.8261,0.8295,0.829,0.8248,0.8196,0.8189,0.8182,0.8103,0.8086,0.8071,0,0,0,0,0,0,0.8177,0.8211,0.8239,0.8186,0.8191,0.8216,0.8184,0.8219,0.8212,0.822,0.8266,0.8269,0.8221,0.8231,0.8268,0.8181,0.8235,0.8227,0.8176,0.816,0.8148,0.8146,0.8339,0,0,0,0,0,0.8152,0.8133,0.8162,0.8112,0.8113,0.8148,0.814,0.8168,0.8175,0.8177,0.8193,0.8197,0.8183,0.8172,0.816,0.8099,0.8104,0.8067,0.8054,0.8044,0.8036,0.8005,0.7989,0.8156,0.8156,0.8156,0,0,0.8098,0.8114,0.8099,0.8095,0.8102,0.8081,0.8149,0.8123,0.8108,0.8173,0.8136,0.8148,0.8156,0.8104,0.8083,0.8111,0.7991,0.8035,0.8026,0.8024,0.7996,0.7981,0.7966,0.8151,0.8152,0.8153,0,0,0.799,0.8,0.796,0.7966,0.7977,0.8001,0.7991,0.8011,0.8022,0.7986,0.8035,0.8017,0.7991,0.7995,0.7993,0.7888,0.7925,0.7883,0.7815,0.7784,0.7771,0.776,0.7723,0.7709,0.7875,0.7875,0.7875,0,0.7922,0.7892,0.7934,0.7906,0.7903,0.7963,0.7923,0.7926,0.7931,0.7928,0.796,0.7929,0.7938,0.789,0.7864,0.7861,0.7851,0.7881,0.777,0.7759,0.7749,0.7714,0.77,0.787,0.787,0.7871,0.7871,0,0.7808,0.7787,0.7753,0.7759,0.7752,0.7718,0.7755,0.7743,0.7772,0.7792,0.7755,0.7769,0.7761,0.7752,0.7779,0.7707,0.7724,0.7762,0.7818,0.7727,0.7695,0.7682,0.7862,0.7864,0.7866,0.7867,0,0,0.7643,0.7674,0.7661,0.7665,0.7682,0.7666,0.7635,0.7629,0.7618,0.762,0.7595,0.7572,0.7608,0.7606,0.7635,0.7608,0.7525,0.765,0.765,0.7626,0.7447,0.7418,0.7402,0.755,0.7548,0.7546,0.7446,0,0.754,0.7489,0.7527,0.747,0.7451,0.7508,0.7481,0.7488,0.7506,0.7493,0.7513,0.7497,0.7545,0.7544,0.752,0.754,0.7489,0.7548,0.7527,0.7525,0.7523,0.7385,0.7355,0.726,0.7434,0.7432,0.743,0,0.7413,0.7411,0.7352,0.7375,0.7368,0.7343,0.7342,0.7328,0.7338,0.7353,0.7352,0.7388,0.7359,0.7414,0.7374,0.7413,0.7407,0.7415,0.7412,0.7412,0.7472,0.7381,0.7231,0.7217,0.7411,0.7413,0.7414,0,0.7299,0.7282,0.7245,0.7247,0.7271,0.7253,0.7262,0.7275,0.7269,0.7267,0.7264,0.7259,0.7255,0.725,0.7284,0.7321,0.724,0.7297,0.7251,0.725,0.7231,0.7232,0.7078,0.7227,0.7227,0.7227,0.7228,0,0.718,0.7142,0.7195,0.7172,0.7131,0.7175,0.7133,0.7148,0.7159,0.714,0.7188,0.7169,0.7215,0.72,0.7226,0.719,0.7188,0.7199,0.7206,0.7195,0.7193,0.7191,0.7198,0.7224,0.7225,0.7225,0.7226,0,0.7046,0.708,0.7043,0.7071,0.7077,0.7045,0.7069,0.7048,0.7071,0.7046,0.7042,0.7077,0.7063,0.7096,0.7086,0.7103,0.7051,0.7069,0.7048,0.7054,0.7006,0.701,0.6845,0.6826,0.6987,0.6985,0.6984,0,0.6968,0.694,0.6965,0.6957,0.6964,0.6949,0.6945,0.6987,0.698,0.6989,0.6968,0.6958,0.6952,0.6926,0.695,0.6943,0.6961,0.6904,0.696,0.6949,0.696,0.6961,0.6959,0.6892,0.689,0.6888,0.6887,0,0.6826,0.6845,0.6837,0.6835,0.6828,0.6828,0.6831,0.6821,0.6867,0.6856,0.6843,0.6838,0.6829,0.6818,0.6817,0.6826,0.6863,0.6869,0.6858,0.6846,0.6835,0.6841,0.7017,0.6873,0.6874,0.6875,0.6876,0.6876,0.6718,0.6697,0.6712,0.6701,0.6709,0.6711,0.6694,0.6715,0.6705,0.6702,0.6727,0.6708,0.672,0.6722,0.6727,0.6713,0.6738,0.6722,0.6718,0.6714,0.6706,0.6838,0.6712,0.6713,0.6713,0.6714,0.6714,0,0.6579,0.6592,0.6582,0.6587,0.6578,0.6616,0.6622,0.6613,0.6596,0.6604,0.6598,0.6583,0.6573,0.6597,0.6591,0.6575,0.6592,0.6571,0.6573,0.6575,0.6683,0.6693,0.6558,0.6558,0.6558,0.6558,0.6558,0.6558,0.6506,0.6472,0.6493,0.6463,0.6476,0.6459,0.6459,0.6462,0.6469,0.645,0.6443,0.6459,0.6473,0.6469,0.6462,0.6469,0.6464,0.6438,0.6451,0.6552,0.6567,0.6581,0.6591,0.6437,0.6436,0.6344,0.6343,0.6342]}]]